N5535W KBDU-KEGE

Flight info

Callsign N5535W
Flight time 0h 35m
Altitude 22000
Route RLG CULCH
Aircraft B36T/L-BDFGLORY/S

Departure

Time 2026-04-26 22:36
Airport Boulder Municipal Airport (KBDU)

Arrival

Time 2026-04-26 23:12
Airport Eagle County Regional Airport (KEGE)
Time Latitude Longitude Altitude Speed Heading
2026-04-26 22:33 40.03774 -105.23078 5288 ft 0 kts 269°
2026-04-26 22:33 40.03795 -105.23100 5288 ft 11 kts
2026-04-26 22:33 40.03855 -105.23068 5288 ft 13 kts 80°
2026-04-26 22:34 40.03857 -105.22881 5286 ft 25 kts 91°
2026-04-26 22:34 40.03856 -105.22663 5290 ft 26 kts 89°
2026-04-26 22:34 40.03856 -105.22393 5291 ft 34 kts 89°
2026-04-26 22:34 40.03855 -105.22122 5297 ft 19 kts 90°
2026-04-26 22:35 40.03860 -105.21962 5294 ft 17 kts 75°
2026-04-26 22:35 40.03908 -105.21898 5294 ft 4 kts 315°
2026-04-26 22:35 40.03911 -105.21924 5295 ft 8 kts 269°
2026-04-26 22:35 40.03911 -105.22163 5296 ft 59 kts 271°
2026-04-26 22:36 40.03908 -105.23004 5423 ft 115 kts 272°
2026-04-26 22:36 40.03913 -105.24129 6001 ft 134 kts 271°
2026-04-26 22:36 40.03897 -105.25434 6601 ft 154 kts 270°
2026-04-26 22:36 40.03884 -105.26895 7183 ft 165 kts 268°
2026-04-26 22:37 40.03606 -105.28390 7711 ft 177 kts 248°
2026-04-26 22:37 40.03111 -105.29907 8237 ft 185 kts 248°
2026-04-26 22:37 40.02458 -105.31330 8715 ft 190 kts 225°
2026-04-26 22:37 40.01276 -105.32049 9323 ft 188 kts 196°
2026-04-26 22:38 39.99982 -105.31885 9934 ft 194 kts 160°
2026-04-26 22:38 39.98984 -105.30726 10517 ft 197 kts 122°
2026-04-26 22:38 39.98657 -105.29005 11106 ft 195 kts 93°
2026-04-26 22:38 39.99034 -105.27340 11711 ft 194 kts 52°
2026-04-26 22:39 40.00106 -105.26360 12334 ft 188 kts 10°
2026-04-26 22:39 40.01358 -105.26434 12973 ft 179 kts 339°
2026-04-26 22:39 40.02555 -105.26854 13615 ft 177 kts 338°
2026-04-26 22:39 40.03750 -105.27318 14091 ft 179 kts 327°
2026-04-26 22:40 40.04551 -105.28406 14559 ft 167 kts 286°
2026-04-26 22:40 40.04554 -105.29852 15055 ft 159 kts 251°
2026-04-26 22:40 40.04181 -105.31201 15548 ft 157 kts 248°
2026-04-26 22:40 40.03788 -105.32538 16061 ft 159 kts 248°
2026-04-26 22:41 40.03400 -105.33894 16569 ft 161 kts 248°
2026-04-26 22:41 40.03012 -105.35271 17087 ft 163 kts 249°
2026-04-26 22:41 40.02623 -105.36659 17610 ft 162 kts 248°
2026-04-26 22:41 40.02242 -105.38042 18117 ft 162 kts 252°
2026-04-26 22:42 40.02192 -105.39516 18577 ft 163 kts 264°
2026-04-26 22:42 40.02165 -105.40964 19035 ft 161 kts 263°
2026-04-26 22:42 40.02138 -105.42427 19510 ft 161 kts 263°
2026-04-26 22:42 40.02117 -105.43889 19990 ft 161 kts 263°
2026-04-26 22:43 40.02096 -105.45349 20478 ft 161 kts 263°
2026-04-26 22:43 40.02075 -105.46811 20972 ft 161 kts 263°
2026-04-26 22:43 40.02053 -105.48263 21475 ft 160 kts 263°
2026-04-26 22:43 40.02028 -105.49788 21629 ft 179 kts 263°
2026-04-26 22:44 40.02006 -105.51472 21635 ft 191 kts 264°
2026-04-26 22:44 40.01982 -105.53233 21629 ft 196 kts 263°
2026-04-26 22:44 40.01954 -105.55008 21624 ft 200 kts 263°
2026-04-26 22:44 40.01930 -105.56838 21616 ft 203 kts 264°
2026-04-26 22:45 40.01905 -105.58682 21606 ft 204 kts 264°
2026-04-26 22:45 40.01873 -105.60537 21602 ft 205 kts 264°
2026-04-26 22:45 40.01842 -105.62388 21599 ft 204 kts 264°
2026-04-26 22:45 40.01812 -105.64235 21600 ft 204 kts 264°
2026-04-26 22:46 40.01778 -105.66097 21571 ft 209 kts 263°
2026-04-26 22:46 40.01751 -105.67989 21572 ft 209 kts 263°
2026-04-26 22:46 40.01721 -105.69891 21572 ft 211 kts 263°
2026-04-26 22:46 40.01688 -105.71807 21572 ft 212 kts 263°
2026-04-26 22:47 40.01658 -105.73739 21571 ft 214 kts 263°
2026-04-26 22:47 40.01623 -105.75685 21574 ft 216 kts 263°
2026-04-26 22:47 40.01591 -105.77648 21571 ft 217 kts 263°
2026-04-26 22:47 40.01558 -105.79596 21581 ft 218 kts 263°
2026-04-26 22:48 40.01524 -105.81569 21577 ft 217 kts 263°
2026-04-26 22:48 40.01490 -105.83536 21579 ft 217 kts 263°
2026-04-26 22:48 40.01455 -105.85504 21579 ft 217 kts 263°
2026-04-26 22:48 40.01420 -105.87472 21578 ft 216 kts 263°
2026-04-26 22:49 40.01386 -105.89432 21576 ft 216 kts 263°
2026-04-26 22:49 40.01350 -105.91396 21577 ft 217 kts 263°
2026-04-26 22:49 40.01314 -105.93361 21586 ft 217 kts 263°
2026-04-26 22:49 40.01278 -105.95317 21581 ft 215 kts 263°
2026-04-26 22:50 40.01246 -105.97239 21585 ft 215 kts 263°
2026-04-26 22:50 40.01206 -105.99181 21584 ft 215 kts 263°
2026-04-26 22:50 40.01168 -106.01140 21589 ft 216 kts 263°
2026-04-26 22:50 40.01132 -106.03093 21594 ft 215 kts 263°
2026-04-26 22:51 40.01098 -106.05052 21581 ft 216 kts 264°
2026-04-26 22:51 40.01062 -106.06992 21591 ft 214 kts 263°
2026-04-26 22:51 40.01014 -106.08937 21592 ft 215 kts 263°
2026-04-26 22:51 40.00976 -106.10888 21589 ft 215 kts 263°
2026-04-26 22:52 40.00938 -106.12831 21591 ft 214 kts 263°
2026-04-26 22:52 40.00900 -106.14747 21590 ft 214 kts 263°
2026-04-26 22:52 40.00861 -106.16686 21592 ft 214 kts 263°
2026-04-26 22:52 40.00821 -106.18631 21592 ft 215 kts 263°
2026-04-26 22:53 40.00781 -106.20577 21591 ft 215 kts 263°
2026-04-26 22:53 40.00741 -106.22522 21597 ft 214 kts 263°
2026-04-26 22:53 40.00704 -106.24449 21595 ft 210 kts 263°
2026-04-26 22:53 40.00665 -106.26330 21593 ft 205 kts 263°
2026-04-26 22:54 40.00625 -106.28181 21586 ft 203 kts 262°
2026-04-26 22:54 40.00584 -106.30017 21584 ft 202 kts 263°
2026-04-26 22:54 40.00545 -106.31845 21583 ft 201 kts 262°
2026-04-26 22:54 40.00506 -106.33644 21583 ft 201 kts 263°
2026-04-26 22:55 40.00467 -106.35461 21605 ft 201 kts 262°
2026-04-26 22:55 40.00427 -106.37289 21607 ft 202 kts 263°
2026-04-26 22:55 40.00386 -106.39122 21604 ft 202 kts 262°
2026-04-26 22:55 40.00344 -106.40953 21606 ft 201 kts 262°
2026-04-26 22:56 40.00034 -106.42690 21599 ft 196 kts 242°
2026-04-26 22:56 39.99267 -106.44140 21610 ft 194 kts 224°
2026-04-26 22:56 39.98154 -106.45135 21601 ft 196 kts 207°
2026-04-26 22:56 39.96875 -106.45693 21603 ft 197 kts 201°
2026-04-26 22:57 39.95569 -106.46238 21606 ft 197 kts 201°
2026-04-26 22:57 39.94263 -106.46791 21594 ft 197 kts 202°
2026-04-26 22:57 39.92956 -106.47343 21597 ft 197 kts 202°
2026-04-26 22:57 39.91724 -106.47859 21380 ft 171 kts 202°
2026-04-26 22:58 39.90649 -106.48307 20967 ft 155 kts 202°
2026-04-26 22:58 39.89733 -106.48686 20542 ft 125 kts 204°
2026-04-26 22:58 39.88958 -106.49012 20129 ft 111 kts 205°
2026-04-26 22:58 39.88254 -106.49308 19714 ft 103 kts 206°
2026-04-26 22:59 39.87590 -106.49588 19314 ft 98 kts 206°
2026-04-26 22:59 39.86954 -106.49856 18945 ft 97 kts 206°
2026-04-26 22:59 39.86317 -106.50123 18547 ft 96 kts 207°
2026-04-26 22:59 39.85716 -106.50376 17979 ft 109 kts 206°
2026-04-26 23:00 39.84936 -106.50700 17226 ft 120 kts 206°
2026-04-26 23:00 39.84143 -106.51032 16476 ft 119 kts 206°
2026-04-26 23:00 39.83359 -106.51362 15738 ft 118 kts 207°
2026-04-26 23:00 39.82575 -106.51704 15011 ft 120 kts 206°
2026-04-26 23:01 39.82042 -106.51918 14552 ft 125 kts 206°
2026-04-26 23:01 39.80802 -106.52438 13717 ft 146 kts 205°
2026-04-26 23:01 39.79863 -106.52836 13106 ft 139 kts 206°
2026-04-26 23:01 39.78959 -106.53221 12570 ft 134 kts 205°
2026-04-26 23:02 39.78075 -106.53579 12533 ft 141 kts 205°
2026-04-26 23:02 39.77087 -106.54003 12530 ft 155 kts 205°
2026-04-26 23:02 39.76051 -106.54439 12534 ft 161 kts 205°
2026-04-26 23:02 39.75323 -106.54752 12529 ft 172 kts 205°
2026-04-26 23:03 39.74159 -106.55250 12533 ft 178 kts 203°
2026-04-26 23:03 39.72960 -106.55741 12529 ft 182 kts 204°
2026-04-26 23:03 39.71748 -106.56257 12530 ft 187 kts 204°
2026-04-26 23:03 39.70523 -106.56838 12520 ft 185 kts 214°
2026-04-26 23:04 39.69586 -106.57928 12522 ft 179 kts 233°
2026-04-26 23:04 39.69011 -106.59359 12450 ft 184 kts 254°
2026-04-26 23:04 39.68766 -106.60828 12177 ft 145 kts 256°
2026-04-26 23:04 39.68580 -106.62005 11944 ft 124 kts 256°
2026-04-26 23:05 39.68407 -106.63084 11752 ft 120 kts 256°
2026-04-26 23:05 39.68253 -106.64128 11556 ft 115 kts 256°
2026-04-26 23:05 39.68100 -106.65153 11359 ft 115 kts 257°
2026-04-26 23:05 39.67949 -106.66175 11179 ft 115 kts 257°
2026-04-26 23:06 39.67793 -106.67219 10983 ft 120 kts 258°
2026-04-26 23:06 39.67631 -106.68312 10785 ft 128 kts 259°
2026-04-26 23:06 39.67460 -106.69478 10568 ft 137 kts 261°
2026-04-26 23:06 39.67285 -106.70685 10331 ft 128 kts 254°
2026-04-26 23:07 39.67125 -106.71727 10139 ft 113 kts 256°
2026-04-26 23:07 39.66980 -106.72724 9967 ft 118 kts 255°
2026-04-26 23:07 39.66817 -106.73803 9756 ft 125 kts 256°
2026-04-26 23:07 39.66651 -106.74911 9555 ft 123 kts 257°
2026-04-26 23:08 39.66489 -106.76027 9322 ft 127 kts 256°
2026-04-26 23:08 39.66315 -106.77172 9105 ft 132 kts 260°
2026-04-26 23:08 39.66138 -106.78367 8879 ft 137 kts 261°
2026-04-26 23:08 39.65961 -106.79555 8647 ft 131 kts 261°
2026-04-26 23:09 39.65795 -106.80692 8438 ft 131 kts 260°
2026-04-26 23:09 39.65625 -106.81846 8214 ft 129 kts 259°
2026-04-26 23:09 39.65458 -106.82973 7997 ft 124 kts 257°
2026-04-26 23:09 39.65311 -106.83972 7802 ft 100 kts 256°
2026-04-26 23:10 39.65173 -106.84866 7628 ft 104 kts 256°
2026-04-26 23:10 39.65041 -106.85771 7457 ft 99 kts 256°
2026-04-26 23:10 39.64910 -106.86625 7299 ft 94 kts 255°
2026-04-26 23:10 39.64778 -106.87485 7245 ft 101 kts 257°
2026-04-26 23:11 39.64665 -106.88354 7049 ft 97 kts 255°
2026-04-26 23:11 39.64538 -106.89209 6854 ft 99 kts 252°
2026-04-26 23:11 39.64445 -106.90094 6635 ft 100 kts 251°
2026-04-26 23:11 39.64360 -106.90896 6535 ft 75 kts 257°
2026-04-26 23:12 39.64286 -106.91438 6517 ft 43 kts 256°
2026-04-26 23:12 39.64245 -106.91613 6510 ft 17 kts 139°
2026-04-26 23:12 39.64174 -106.91526 6520 ft 24 kts 95°
2026-04-26 23:12 39.64207 -106.91227 6524 ft 36 kts 78°
2026-04-26 23:13 39.64231 -106.90957 6530 ft 20 kts 114°
2026-04-26 23:13 39.64194 -106.90929 6530 ft 7 kts 203°
2026-04-26 23:13 39.64169 -106.91029 6527 ft 10 kts 262°
2026-04-26 23:13 39.64134 -106.91051 6522 ft 0 kts 184°
2026-04-26 23:14 39.64124 -106.91072 6522 ft 0 kts 261°
2026-04-26 23:14 39.64124 -106.91073 6522 ft 0 kts 262°